Whidbey Island, WA
on Monday, December 31, 2012

Monday
Previous Day Next Day
Daily Summary
 ActualAverageRecord
Temperature
Mean Temperature °F °F  
Max Temperature 39°F 43°F 53°F (1996)
Min Temperature 30°F 33°F 19°F (2010)
Degree Days
Heating Degree Days 30    
Moisture
Dew Point 31°F   
Average Humidity 87    
Maximum Humidity 93    
Minimum Humidity 79    
Precipitation
Precipitation 0.00 in in in ()
Wind
Wind Speed 5 mph   
Max Wind Speed 9 mph   
Max Gust Speed mph   
Visibility 9 miles   
Events     
Averages and records for this station are not official NWS values.
Key: T is trace of precipitation, MM is missing value
Source: NWS Daily Summary
Seasonal Weather Averages
Time(PST)TemperatureDew PointHumidity Pressure Visibility Wind DirectionWind SpeedGust SpeedPrecipitationEvents Conditions
12:56 AM 33.1°F 30.9°F 92% 30.32 in 2.5 miles ESE 8.1 mph - N/A   Overcast
1:07 AM 33.8°F 30.2°F 87% 30.30 in 3.0 miles ESE 6.9 mph - N/A   Overcast
1:27 AM 33.8°F 30.2°F 87% 30.30 in 10.0 miles ESE 6.9 mph - N/A   Overcast
1:56 AM 33.1°F 30.9°F 92% 30.32 in 10.0 miles ESE 6.9 mph - N/A   Overcast
2:18 AM 33.8°F 30.2°F 87% 30.31 in 10.0 miles East 5.8 mph - N/A   Overcast
2:35 AM 33.8°F 30.2°F 87% 30.30 in 10.0 miles East 8.1 mph - N/A   Overcast
2:56 AM 33.1°F 30.0°F 89% 30.31 in 10.0 miles ESE 6.9 mph - N/A   Overcast
3:56 AM 34.0°F 30.9°F 89% 30.30 in 10.0 miles East 5.8 mph - N/A   Mostly Cloudy
4:56 AM 33.1°F 30.0°F 89% 30.28 in 10.0 miles East 6.9 mph - N/A   Overcast
5:56 AM 34.0°F 30.9°F 89% 30.28 in 10.0 miles ESE 5.8 mph - N/A   Mostly Cloudy
6:56 AM 34.0°F 30.0°F 85% 30.29 in 10.0 miles Calm Calm - N/A   Overcast
7:56 AM 33.1°F 30.0°F 89% 30.30 in 10.0 miles ENE 5.8 mph - N/A   Overcast
8:56 AM 33.1°F 30.0°F 89% 30.31 in 10.0 miles Calm Calm - N/A   Overcast
9:56 AM 34.0°F 32.0°F 92% 30.34 in 10.0 miles Calm Calm - N/A   Overcast
10:56 AM 37.0°F 33.1°F 86% 30.35 in 10.0 miles Calm Calm - N/A   Overcast
11:56 AM 37.0°F 34.0°F 89% 30.36 in 10.0 miles Calm Calm - N/A   Overcast
12:56 PM 39.0°F 35.1°F 86% 30.35 in 10.0 miles Calm Calm - N/A   Overcast
1:56 PM 39.0°F 34.0°F 82% 30.35 in 10.0 miles Calm Calm - N/A   Overcast
2:56 PM 39.0°F 33.1°F 79% 30.36 in 10.0 miles NW 4.6 mph - N/A   Overcast
3:56 PM 39.0°F 34.0°F 82% 30.38 in 10.0 miles NNW 9.2 mph - N/A   Overcast
4:30 PM 39.2°F 33.8°F 81% 30.36 in 10.0 miles NNW 5.8 mph - N/A   Overcast
4:56 PM 37.9°F 34.0°F 86% 30.38 in 10.0 miles NNW 8.1 mph - N/A   Overcast
5:56 PM 37.9°F 34.0°F 86% 30.39 in 10.0 miles North 6.9 mph - N/A   Overcast
6:30 PM 35.6°F 30.2°F 81% 30.39 in 10.0 miles North 5.8 mph - N/A   Mostly Cloudy
6:56 PM 34.0°F 30.0°F 85% 30.41 in 10.0 miles NE 4.6 mph - N/A   Scattered Clouds
7:56 PM 34.0°F 30.0°F 85% 30.43 in 10.0 miles Calm Calm - N/A   Mostly Cloudy
8:56 PM 30.0°F 28.0°F 92% 30.44 in 10.0 miles Calm Calm - N/A   Scattered Clouds
9:23 PM 30.2°F 28.4°F 93% 30.43 in 8.0 miles Calm Calm - N/A   Mostly Cloudy
9:56 PM 32.0°F 28.9°F 88% 30.45 in 8.0 miles ESE 3.5 mph - N/A   Mostly Cloudy
10:56 PM 32.0°F 30.0°F 92% 30.48 in 8.0 miles ESE 5.8 mph - N/A   Overcast
11:56 PM 34.0°F 30.9°F 89% 30.48 in 10.0 miles ESE 3.5 mph - N/A   Overcast
Moon Phase
Dec. 31 Jan. 04 Jan. 11 Jan. 18 Jan. 26
Sunrise:08:01 AM (PST) Moon Rise:08:20 PM (PST)
Sunset:04:26 PM (PST) Moon Set:09:29 AM (PST)

Copyright © 2014 The Weather Underground, Inc.